GW6550 Weather Reports


time (UTC)temp
F
wind
direction
speed
knots
gust
knots
rain 1hr
in
rain 24hr
in
rain mn
in
humidity
%
barometer
mb
20260506232807 72 323 2.6 4.3 0.00 0.00 0.00 55 1017.9
20260506232308 72 335 3.5 6.1 0.00 0.00 0.00 54 1017.9
20260506231808 72 0 3.5 5.2 0.00 0.00 0.00 56 1018.0
20260506231307 72 8 4.3 7.8 0.00 0.00 0.00 54 1018.0
20260506230808 72 338 3.5 7.0 0.00 0.00 0.00 55 1018.1
20260506230307 72 0 6.1 8.7 0.00 0.00 0.00 55 1018.2
20260506225807 72 5 6.1 9.6 0.00 0.00 0.00 54 1018.2
20260506225307 72 351 3.5 5.2 0.00 0.00 0.00 55 1018.2
20260506224808 72 331 3.5 4.3 0.00 0.00 0.00 56 1018.3
20260506224307 72 344 4.3 7.8 0.00 0.00 0.00 56 1018.3
20260506223808 72 324 4.3 6.1 0.00 0.00 0.00 56 1018.3
20260506223307 72 32 6.1 7.8 0.00 0.00 0.00 56 1018.3
20260506222807 73 354 4.3 9.6 0.00 0.00 0.00 56 1018.3
20260506222308 73 332 4.3 6.1 0.00 0.00 0.00 56 1018.4
20260506221808 73 344 4.3 7.0 0.00 0.00 0.00 54 1018.5
20260506221307 73 20 3.5 4.3 0.00 0.00 0.00 55 1018.5
20260506220809 73 6 2.6 4.3 0.00 0.00 0.00 53 1018.5
20260506220307 73 3 3.5 7.0 0.00 0.00 0.00 52 1018.6
20260506215809 73 26 4.3 5.2 0.00 0.00 0.00 53 1018.7
20260506215307 73 27 4.3 6.1 0.00 0.00 0.00 53 1018.7
20260506214807 73 347 5.2 6.1 0.00 0.00 0.00 53 1018.8
20260506214309 73 321 3.5 6.1 0.00 0.00 0.00 52 1018.9
20260506213807 72 281 2.6 4.3 0.00 0.00 0.00 52 1018.9
20260506213309 72 288 2.6 4.3 0.00 0.00 0.00 52 1019.0
20260506212808 72 331 2.6 4.3 0.00 0.00 0.00 52 1019.0
20260506212307 71 273 1.7 2.6 0.00 0.00 0.00 53 1019.1
20260506211807 71 344 4.3 7.0 0.00 0.00 0.00 54 1019.2
20260506211309 71 55 3.5 4.3 0.00 0.00 0.00 55 1019.2
20260506210808 71 43 4.3 7.0 0.00 0.00 0.00 54 1019.2
20260506210307 71 283 2.6 4.3 0.00 0.00 0.00 56 1019.3
20260506205808 71 2 2.6 3.5 0.00 0.00 0.00 56 1019.3
20260506205308 71 16 4.3 6.1 0.00 0.00 0.00 55 1019.3
20260506204808 70 12 3.5 4.3 0.00 0.00 0.00 55 1019.4
20260506204308 69 46 0.9 3.5 0.00 0.00 0.00 57 1019.5
20260506203808 70 315 3.5 6.1 0.00 0.00 0.00 57 1019.5
20260506203308 69 296 0.9 1.7 0.00 0.00 0.00 57 1019.6
20260506202807 69 312 2.6 4.3 0.00 0.00 0.00 58 1019.6
20260506202308 69 331 2.6 5.2 0.00 0.00 0.00 58 1019.7
20260506201808 68 31 1.7 5.2 0.00 0.00 0.00 58 1019.8
20260506201307 68 354 4.3 5.2 0.00 0.00 0.00 58 1019.8
20260506200807 68 336 2.6 5.2 0.00 0.00 0.00 60 1019.8
20260506200307 68 282 4.3 6.1 0.00 0.00 0.00 59 1019.9
20260506195807 68 283 2.6 5.2 0.00 0.00 0.00 59 1019.9
20260506195307 68 275 1.7 2.6 0.00 0.00 0.00 61 1019.9
20260506194807 68 345 2.6 5.2 0.00 0.00 0.00 60 1019.9
20260506194308 68 292 2.6 3.5 0.00 0.00 0.00 60 1020.0
20260506193807 68 26 1.7 3.5 0.00 0.00 0.00 61 1020.1
20260506193308 68 313 3.5 5.2 0.00 0.00 0.00 60 1020.1
20260506192808 67 91 0.9 1.7 0.00 0.00 0.00 62 1020.1
20260506192307 67 7 4.3 7.0 0.00 0.00 0.00 62 1020.1
20260506191809 67 353 1.7 3.5 0.00 0.00 0.00 62 1020.2
20260506191308 67 339 1.7 3.5 0.00 0.00 0.00 62 1020.2
20260506190811 66 61 2.6 7.0 0.00 0.00 0.00 64 1020.2
20260506190310 66 288 3.5 4.3 0.00 0.00 0.00 64 1020.3
20260506185808 65 73 4.3 6.1 0.00 0.00 0.00 65 1020.3
20260506185307 66 19 3.5 5.2 0.00 0.00 0.00 65 1020.3
20260506184808 66 34 0.9 2.6 0.00 0.00 0.00 65 1020.3
20260506184311 66 358 1.7 2.6 0.00 0.00 0.00 64 1020.4
20260506183810 65 148 1.7 3.5 0.00 0.00 0.00 65 1020.4
20260506183308 65 290 3.5 5.2 0.00 0.00 0.00 66 1020.5
20260506182808 65 189 0.9 1.7 0.00 0.00 0.00 64 1020.5
20260506182310 65 293 2.6 5.2 0.00 0.00 0.00 64 1020.6
20260506181807 64 91 0.9 1.7 0.00 0.00 0.00 67 1020.6
20260506181307 64 37 2.6 4.3 0.00 0.00 0.00 68 1020.6
20260506180808 64 69 2.6 4.3 0.00 0.00 0.00 68 1020.5
20260506180309 63 7 1.7 4.3 0.00 0.00 0.00 69 1020.6
20260506175807 63 51 3.5 5.2 0.00 0.00 0.00 68 1020.6
20260506175308 63 206 3.5 4.3 0.00 0.00 0.00 69 1020.6
20260506174808 63 291 1.7 2.6 0.00 0.00 0.00 69 1020.7
20260506174308 63 330 0.9 2.6 0.00 0.00 0.00 69 1020.6
20260506173808 63 183 0.9 1.7 0.00 0.00 0.00 69 1020.7
20260506173308 63 222 0.9 1.7 0.00 0.00 0.00 69 1020.7
20260506172807 62 269 1.7 2.6 0.00 0.00 0.00 71 1020.7
20260506172308 61 54 0.0 1.7 0.00 0.00 0.00 73 1020.7
20260506171808 61 233 1.7 2.6 0.00 0.00 0.00 74 1020.7
20260506171308 61 335 1.7 3.5 0.00 0.00 0.00 74 1020.8
20260506170808 60 258 1.7 2.6 0.00 0.00 0.00 74 1020.8
20260506170307 60 258 1.7 2.6 0.00 0.00 0.00 74 1020.8
20260506165807 60 255 1.7 3.5 0.00 0.00 0.00 75 1020.8
20260506165308 61 323 0.0 1.7 0.00 0.00 0.00 74 1020.8
20260506164807 60 238 0.0 0.9 0.00 0.00 0.00 75 1020.8
20260506164309 60 169 0.9 1.7 0.00 0.00 0.00 76 1020.8
20260506163807 60 326 0.9 2.6 0.00 0.00 0.00 77 1020.8
20260506163307 60 264 0.9 2.6 0.00 0.00 0.00 77 1020.8
20260506162808 60 354 0.9 2.6 0.00 0.00 0.00 77 1020.8
20260506162308 60 305 1.7 3.5 0.00 0.00 0.00 76 1020.7
20260506161808 59 316 0.9 2.6 0.00 0.00 0.00 79 1020.8
20260506161308 59 268 1.7 2.6 0.00 0.00 0.00 79 1020.8
20260506160809 59 346 1.7 2.6 0.00 0.00 0.00 80 1020.8
20260506160310 59 281 2.6 5.2 0.00 0.00 0.00 79 1020.8
20260506155812 59 339 1.7 2.6 0.00 0.00 0.00 79 1020.8
20260506155308 58 303 0.9 1.7 0.00 0.00 0.00 80 1020.8
20260506154807 58 335 1.7 2.6 0.00 0.00 0.00 81 1020.8
20260506154308 58 251 0.0 0.0 0.00 0.00 0.00 81 1020.7
20260506153811 58 341 0.9 2.6 0.00 0.00 0.00 82 1020.7
20260506153312 58 254 0.9 1.7 0.00 0.00 0.00 82 1020.8
20260506152808 57 320 0.0 0.9 0.00 0.00 0.00 82 1020.8
20260506152307 57 264 1.7 2.6 0.00 0.00 0.00 82 1020.7
20260506151808 57 280 1.7 3.5 0.00 0.00 0.00 82 1020.7
20260506151308 57 22 0.0 0.9 0.00 0.00 0.00 83 1020.7
20260506150808 57 288 0.9 1.7 0.00 0.00 0.00 83 1020.7
20260506150312 57 286 0.9 1.7 0.00 0.00 0.00 83 1020.8
20260506145809 57 296 0.9 1.7 0.00 0.00 0.00 84 1020.8
20260506145308 57 307 0.0 0.9 0.00 0.00 0.00 84 1020.7
20260506144807 56 285 0.9 1.7 0.00 0.00 0.00 84 1020.8
20260506144308 56 242 0.9 1.7 0.00 0.00 0.00 84 1020.7
20260506143807 56 246 0.9 1.7 0.00 0.00 0.00 84 1020.7
20260506143312 56 281 1.7 2.6 0.00 0.00 0.00 84 1020.6
20260506142808 56 270 0.9 1.7 0.00 0.00 0.00 85 1020.6
20260506142308 56 289 0.9 2.6 0.00 0.00 0.00 85 1020.7
20260506141808 56 283 1.7 3.5 0.00 0.00 0.00 85 1020.6
20260506141307 56 280 0.9 1.7 0.00 0.00 0.00 85 1020.5
20260506140808 56 279 1.7 1.7 0.00 0.00 0.00 85 1020.5
20260506140311 56 270 0.0 0.9 0.00 0.00 0.00 85 1020.5
20260506135807 56 274 1.7 3.5 0.00 0.00 0.00 85 1020.4
20260506135308 56 273 0.9 1.7 0.00 0.00 0.00 85 1020.3
20260506134808 56 271 0.0 1.7 0.00 0.00 0.00 85 1020.2
20260506134309 56 278 1.7 2.6 0.00 0.00 0.00 85 1020.2
20260506133808 56 288 0.9 1.7 0.00 0.00 0.00 85 1020.1
20260506133313 56 253 0.9 1.7 0.00 0.00 0.00 86 1020.0
20260506132809 56 288 1.7 1.7 0.00 0.00 0.00 86 1020.0
20260506132308 56 266 0.9 1.7 0.00 0.00 0.00 86 1019.9
20260506131808 56 282 0.9 1.7 0.00 0.00 0.00 86 1019.9
20260506131308 56 274 1.7 2.6 0.00 0.00 0.00 86 1019.9
20260506130808 56 277 1.7 1.7 0.00 0.00 0.00 86 1019.9
20260506130311 56 250 0.9 1.7 0.00 0.00 0.00 85 1019.8
20260506125807 56 287 0.9 1.7 0.00 0.00 0.00 85 1019.8
20260506125308 56 292 0.9 2.6 0.00 0.00 0.00 85 1019.7
20260506124346 56 286 1.7 3.5 0.00 0.00 0.00 85 1019.7
20260506123808 56 69 0.0 0.0 0.00 0.00 0.00 85 1019.6
20260506123307 56 304 0.9 1.7 0.00 0.00 0.00 86 1019.6
20260506122808 56 196 0.0 0.0 0.00 0.00 0.00 85 1019.7
20260506122307 56 256 0.9 1.7 0.00 0.00 0.00 85 1019.7
20260506121807 56 303 0.0 1.7 0.00 0.00 0.00 85 1019.7
20260506121308 56 284 0.9 1.7 0.00 0.00 0.00 85 1019.6
20260506120807 56 327 0.0 0.9 0.00 0.00 0.00 85 1019.6
20260506120308 56 245 0.0 0.9 0.00 0.00 0.00 85 1019.5
20260506115807 56 277 1.7 2.6 0.00 0.00 0.00 85 1019.5
20260506115307 56 274 0.9 1.7 0.00 0.00 0.00 85 1019.5
20260506114809 56 270 1.7 2.6 0.00 0.00 0.00 85 1019.5
20260506114308 56 279 0.9 0.9 0.00 0.00 0.00 85 1019.4
20260506113808 56 289 0.9 1.7 0.00 0.00 0.00 85 1019.4
20260506113307 56 271 0.9 1.7 0.00 0.00 0.00 85 1019.4
20260506112808 56 238 0.9 1.7 0.00 0.00 0.00 85 1019.3
20260506112308 56 271 0.9 1.7 0.00 0.00 0.00 85 1019.3
20260506111809 56 269 0.9 1.7 0.00 0.00 0.00 85 1019.3
20260506111308 56 300 0.9 0.9 0.00 0.00 0.00 85 1019.3
20260506110807 56 308 0.0 0.9 0.00 0.00 0.00 85 1019.3
20260506110309 56 309 1.7 2.6 0.00 0.00 0.00 85 1019.2
20260506105807 56 332 0.9 1.7 0.00 0.00 0.00 86 1019.2
20260506105308 56 330 0.0 1.7 0.00 0.00 0.00 86 1019.2
20260506104807 56 250 0.0 0.9 0.00 0.00 0.00 85 1019.1
20260506104307 57 253 0.0 0.9 0.00 0.00 0.00 85 1019.1
20260506103808 57 322 0.9 0.9 0.00 0.00 0.00 85 1019.1
20260506103308 57 299 0.9 0.9 0.00 0.00 0.00 85 1019.1
20260506102342 57 302 0.0 0.9 0.00 0.00 0.00 84 1019.1
20260506101807 57 265 0.0 0.9 0.00 0.00 0.00 84 1019.1
20260506101307 57 310 0.0 1.7 0.00 0.00 0.00 84 1019.1
20260506100807 57 340 0.0 0.9 0.00 0.00 0.00 84 1019.2
20260506100308 57 304 0.0 1.7 0.00 0.00 0.00 84 1019.1
20260506095808 57 323 0.0 1.7 0.00 0.00 0.00 84 1019.1
20260506095309 57 259 1.7 1.7 0.00 0.00 0.00 84 1019.1
20260506094807 57 313 0.0 0.9 0.00 0.00 0.00 83 1019.1
20260506094307 57 288 0.9 1.7 0.00 0.00 0.00 83 1019.1
20260506093807 57 302 0.0 0.9 0.00 0.00 0.00 83 1019.1
20260506093308 57 0 0.0 0.0 0.00 0.00 0.00 83 1019.1
20260506092807 57 4 0.9 1.7 0.00 0.00 0.00 83 1019.2
20260506092308 57 2 0.0 0.0 0.00 0.00 0.00 83 1019.2
20260506091807 57 348 1.7 2.6 0.00 0.00 0.00 83 1019.2
20260506091307 57 354 0.9 1.7 0.00 0.00 0.00 83 1019.2
20260506090808 57 27 0.0 0.9 0.00 0.00 0.00 83 1019.1
20260506090310 57 324 0.0 0.9 0.00 0.00 0.00 83 1019.1
20260506085807 57 236 0.0 0.9 0.00 0.00 0.00 83 1019.0
20260506085308 57 0 0.0 0.0 0.00 0.00 0.00 82 1019.0
20260506084808 57 249 0.9 1.7 0.00 0.00 0.00 82 1019.1
20260506084307 57 315 0.0 0.9 0.00 0.00 0.00 82 1019.1
20260506083808 57 3 0.9 1.7 0.00 0.00 0.00 82 1019.1
20260506083307 57 286 0.9 2.6 0.00 0.00 0.00 82 1019.1
20260506082808 57 312 0.9 1.7 0.00 0.00 0.00 82 1019.1
20260506082308 57 315 0.0 0.9 0.00 0.00 0.00 82 1019.2
20260506081808 57 287 0.0 0.0 0.00 0.00 0.00 82 1019.2
20260506081308 57 331 0.0 0.9 0.00 0.00 0.00 82 1019.2
20260506080808 57 301 0.9 1.7 0.00 0.00 0.00 82 1019.2
20260506080311 57 322 0.0 1.7 0.00 0.00 0.00 82 1019.1
20260506073308 58 314 0.9 1.7 0.00 0.00 0.00 80 1018.9
20260506072807 58 339 0.9 2.6 0.00 0.00 0.00 80 1018.9
20260506072307 58 9 0.0 0.9 0.00 0.00 0.00 80 1018.8
20260506071807 58 310 0.0 0.9 0.00 0.00 0.00 80 1018.8
20260506071307 58 357 1.7 3.5 0.00 0.00 0.00 80 1018.8
20260506070807 58 9 0.0 0.9 0.00 0.00 0.00 80 1018.7
20260506070308 58 18 0.9 1.7 0.00 0.00 0.00 80 1018.7
20260506062308 58 350 1.7 3.5 0.00 0.00 0.01 78 1018.5
20260506061807 58 8 2.6 4.3 0.00 0.00 0.01 78 1018.5
20260506061308 58 357 0.9 3.5 0.00 0.00 0.01 78 1018.4
20260506060809 58 343 1.7 2.6 0.00 0.00 0.01 78 1018.3
20260506060307 58 6 3.5 5.2 0.00 0.00 0.01 77 1018.3
20260506051308 59 359 0.9 1.7 0.00 0.00 0.01 75 1018.1
20260506050808 59 326 0.9 1.7 0.00 0.00 0.01 76 1018.0
20260506050308 59 356 1.7 2.6 0.00 0.00 0.01 75 1017.9
20260506044808 59 329 1.7 3.5 0.00 0.00 0.01 75 1017.8
20260506044308 59 350 0.9 1.7 0.00 0.00 0.01 74 1017.7
20260506043808 59 346 1.7 3.5 0.00 0.00 0.01 74 1017.7
20260506043309 59 340 0.9 1.7 0.00 0.00 0.01 74 1017.7
20260506042807 59 352 0.9 2.6 0.00 0.00 0.01 74 1017.7
20260506042308 59 32 3.5 4.3 0.00 0.00 0.01 73 1017.6
20260506041808 59 355 0.9 1.7 0.00 0.00 0.01 73 1017.6
20260506041307 59 336 0.9 2.6 0.00 0.00 0.01 73 1017.5
20260506040807 59 288 0.9 1.7 0.00 0.00 0.01 73 1017.4
20260506040308 59 295 1.7 2.6 0.00 0.00 0.01 73 1017.3
20260506035807 59 242 0.9 2.6 0.00 0.00 0.01 72 1017.2
20260506035308 59 270 1.7 3.5 0.00 0.00 0.01 72 1017.2
20260506034808 59 272 1.7 1.7 0.00 0.00 0.01 72 1017.2
20260506034307 59 273 1.7 2.6 0.00 0.00 0.01 72 1017.1
20260506033808 59 264 0.9 1.7 0.00 0.00 0.01 72 1017.0
20260506033308 59 261 0.9 1.7 0.00 0.00 0.01 72 1017.0
20260506032807 59 317 0.9 1.7 0.00 0.00 0.01 71 1016.9
20260506032308 59 285 2.6 3.5 0.00 0.00 0.01 71 1016.8
20260506031807 60 295 1.7 2.6 0.00 0.00 0.01 72 1016.8
20260506031307 60 311 0.9 1.7 0.00 0.00 0.01 72 1016.8
20260506030808 60 269 0.9 1.7 0.00 0.00 0.01 72 1016.7
20260506030307 60 311 0.9 1.7 0.00 0.00 0.01 72 1016.7
20260506025808 60 337 1.7 3.5 0.00 0.00 0.01 73 1016.6
20260506025307 60 268 0.9 2.6 0.00 0.00 0.01 72 1016.6
20260506024807 60 308 0.9 1.7 0.00 0.00 0.01 73 1016.5
20260506024308 60 293 0.9 1.7 0.00 0.00 0.01 73 1016.4
20260506023807 60 307 0.9 1.7 0.00 0.00 0.01 72 1016.4
20260506023307 60 320 0.0 1.7 0.00 0.00 0.01 72 1016.3
20260506022809 60 274 1.7 2.6 0.00 0.00 0.01 72 1016.3
20260506022308 60 292 0.9 2.6 0.00 0.00 0.01 72 1016.3
20260506021807 60 284 1.7 3.5 0.00 0.00 0.01 71 1016.3
20260506021307 60 291 0.9 2.6 0.00 0.00 0.01 72 1016.2
20260506020810 60 289 1.7 3.5 0.00 0.00 0.01 72 1016.2
20260506020307 60 274 1.7 2.6 0.00 0.00 0.01 72 1016.3
20260506015807 60 275 0.0 1.7 0.00 0.00 0.01 72 1016.3
20260506015307 60 298 0.9 1.7 0.00 0.00 0.01 72 1016.3
20260506014807 60 288 1.7 2.6 0.00 0.00 0.01 72 1016.3
20260506014308 60 270 0.9 1.7 0.00 0.00 0.01 72 1016.4
20260506013807 60 261 0.9 1.7 0.00 0.00 0.01 72 1016.4
20260506013308 60 302 1.7 2.6 0.00 0.00 0.01 72 1016.4
20260506012807 60 310 1.7 3.5 0.00 0.00 0.01 72 1016.3
20260506012308 60 284 0.9 1.7 0.00 0.00 0.01 72 1016.3
20260506011808 60 279 1.7 2.6 0.00 0.00 0.01 72 1016.2
20260506011307 60 292 1.7 2.6 0.00 0.00 0.01 71 1016.3
20260506010808 60 274 1.7 4.3 0.00 0.00 0.01 71 1016.2
20260506010308 60 276 0.9 2.6 0.00 0.00 0.01 71 1016.2
20260506005808 60 292 1.7 3.5 0.00 0.00 0.01 71 1016.2
20260506005308 61 282 1.7 3.5 0.00 0.00 0.01 71 1016.2
20260506004807 61 220 0.0 1.7 0.00 0.00 0.01 72 1016.2
20260506004308 61 255 1.7 3.5 0.00 0.00 0.01 72 1016.2
20260506003808 61 291 2.6 6.1 0.00 0.00 0.01 72 1016.2
20260506003309 61 305 3.5 6.1 0.00 0.00 0.01 72 1016.2
20260506002808 61 279 2.6 5.2 0.00 0.00 0.01 71 1016.1
20260506002307 62 299 2.6 4.3 0.00 0.00 0.01 71 1016.0
20260506001807 62 310 1.7 3.5 0.00 0.00 0.01 69 1016.0
20260506001308 62 214 0.0 0.9 0.00 0.00 0.01 68 1015.9
20260506000807 62 247 0.9 2.6 0.00 0.00 0.01 68 1015.9
20260506000309 62 218 1.7 3.5 0.00 0.00 0.01 67 1015.8
20260505235808 62 89 0.0 1.7 0.00 0.00 0.01 66 1015.8
20260505235307 62 174 1.7 3.5 0.00 0.00 0.01 66 1015.8
20260505234807 62 146 0.9 1.7 0.00 0.00 0.01 67 1015.8
20260505234308 62 171 1.7 4.3 0.00 0.00 0.01 67 1015.9
20260505233808 62 123 0.0 0.9 0.00 0.00 0.01 67 1015.9
20260505233308 62 212 2.6 3.5 0.00 0.00 0.01 67 1015.9